| time (UTC) | temp C | wind direction | speed KPH | gust KPH | rain 1hr cm | rain 24hr cm | rain mn cm | humidity % | barometer mb |
| 20260906063047 | 12 | 346 | 4.8 | 11.3 | 0.00 | 0.00 | 0.00 | 78 | 1007.7 |
| 20260906061549 | 11 | 17 | 1.6 | 6.4 | 0.00 | 0.00 | 0.00 | 81 | 1007.6 |
| 20260906060127 | 11 | 325 | 0.0 | 6.4 | 0.00 | 0.00 | 0.00 | 80 | 1007.4 |
| 20260906054553 | 11 | 331 | 1.6 | 6.4 | 0.00 | 0.00 | 0.00 | 82 | 1007.6 |
| 20260906053047 | 11 | 9 | 3.2 | 6.4 | 0.00 | 0.00 | 0.00 | 82 | 1007.4 |
| 20260906051545 | 11 | 25 | 4.8 | 16.1 | 0.00 | 0.00 | 0.00 | 83 | 1007.4 |
| 20260906050054 | 11 | 321 | 3.2 | 17.7 | 0.00 | 0.00 | 0.00 | 83 | 1007.2 |
| 20260906044548 | 10 | 335 | 6.4 | 22.5 | 0.00 | 0.00 | 0.00 | 84 | 1007.0 |
| 20260906043045 | 10 | 0 | 4.8 | 16.1 | 0.00 | 0.00 | 0.00 | 85 | 1006.9 |
| 20260906041546 | 10 | 351 | 8.0 | 17.7 | 0.00 | 0.00 | 0.00 | 87 | 1006.8 |
| 20260906040053 | 9 | 348 | 6.4 | 17.7 | 0.00 | 0.00 | 0.00 | 87 | 1006.7 |
| 20260906034605 | 9 | 336 | 9.7 | 20.9 | 0.00 | 0.00 | 0.00 | 86 | 1006.5 |
| 20260906033047 | 9 | 335 | 11.3 | 24.1 | 0.00 | 0.00 | 0.00 | 86 | 1006.2 |
| 20260906031553 | 9 | 5 | 6.4 | 24.1 | 0.00 | 0.00 | 0.00 | 86 | 1006.0 |
| 20260906030048 | 9 | 352 | 8.0 | 19.3 | 0.00 | 0.00 | 0.00 | 87 | 1006.0 |
| 20260906024552 | 10 | 348 | 8.0 | 20.9 | 0.00 | 0.00 | 0.00 | 86 | 1005.8 |
| 20260906023044 | 10 | 24 | 11.3 | 22.5 | 0.00 | 0.00 | 0.00 | 86 | 1005.6 |
| 20260906021547 | 10 | 348 | 11.3 | 20.9 | 0.00 | 0.00 | 0.00 | 86 | 1005.5 |
| 20260906020057 | 10 | 9 | 8.0 | 19.3 | 0.00 | 0.00 | 0.00 | 86 | 1005.3 |
| 20260906014552 | 10 | 19 | 6.4 | 27.4 | 0.00 | 0.00 | 0.00 | 86 | 1005.3 |
| 20260906013049 | 10 | 315 | 9.7 | 25.7 | 0.00 | 0.00 | 0.00 | 87 | 1005.3 |
| 20260906011547 | 10 | 336 | 11.3 | 32.2 | 0.00 | 0.00 | 0.00 | 86 | 1004.9 |
| 20260906010106 | 10 | 344 | 11.3 | 29.0 | 0.00 | 0.00 | 0.00 | 86 | 1004.7 |
| 20260906004611 | 10 | 345 | 8.0 | 30.6 | 0.00 | 0.00 | 0.00 | 85 | 1004.5 |
| 20260906003049 | 10 | 28 | 12.9 | 29.0 | 0.00 | 0.00 | 0.00 | 86 | 1004.3 |
| 20260906001600 | 10 | 19 | 9.7 | 25.7 | 0.00 | 0.00 | 0.00 | 85 | 1004.2 |
| 20260906000047 | 10 | 326 | 9.7 | 35.4 | 0.00 | 0.00 | 0.00 | 85 | 1003.9 |
| 20260905234552 | 10 | 323 | 11.3 | 30.6 | 0.00 | 0.00 | 0.00 | 84 | 1003.6 |
| 20260905233050 | 10 | 344 | 16.1 | 30.6 | 0.00 | 0.00 | 0.00 | 84 | 1003.6 |
| 20260905231557 | 10 | 360 | 11.3 | 27.4 | 0.00 | 0.00 | 0.00 | 84 | 1003.5 |
| 20260905230058 | 10 | 5 | 9.7 | 30.6 | 0.00 | 0.00 | 0.00 | 84 | 1003.3 |
| 20260905224548 | 11 | 333 | 6.4 | 29.0 | 0.00 | 0.00 | 0.00 | 84 | 1003.2 |
| 20260905223057 | 10 | 352 | 11.3 | 27.4 | 0.00 | 0.00 | 0.00 | 83 | 1003.0 |
| 20260905221600 | 11 | 346 | 12.9 | 25.7 | 0.00 | 0.00 | 0.00 | 83 | 1002.8 |
| 20260905220051 | 11 | 348 | 9.7 | 24.1 | 0.00 | 0.00 | 0.00 | 85 | 1002.7 |
| 20260905214548 | 11 | 16 | 8.0 | 20.9 | 0.00 | 0.00 | 0.00 | 84 | 1002.4 |
| 20260905213049 | 12 | 46 | 12.9 | 24.1 | 0.00 | 0.00 | 0.00 | 84 | 1002.2 |
| 20260905211554 | 12 | 322 | 8.0 | 19.3 | 0.00 | 0.00 | 0.00 | 84 | 1001.8 |
| 20260905210107 | 12 | 352 | 6.4 | 29.0 | 0.00 | 0.00 | 0.00 | 84 | 1001.6 |
| 20260905204546 | 12 | 337 | 9.7 | 22.5 | 0.00 | 0.00 | 0.00 | 84 | 1001.5 |
| 20260905203046 | 13 | 352 | 9.7 | 24.1 | 0.00 | 0.00 | 0.00 | 84 | 1001.1 |
| 20260905201553 | 13 | 15 | 11.3 | 27.4 | 0.00 | 0.00 | 0.00 | 85 | 1000.8 |
| 20260905200112 | 13 | 351 | 4.8 | 22.5 | 0.00 | 0.00 | 0.00 | 85 | 1000.6 |
| 20260905194546 | 13 | 333 | 9.7 | 24.1 | 0.00 | 0.00 | 0.00 | 85 | 1000.4 |
| 20260905193044 | 13 | 340 | 8.0 | 19.3 | 0.00 | 0.00 | 0.00 | 85 | 1000.3 |
| 20260905191552 | 13 | 346 | 11.3 | 24.1 | 0.00 | 0.00 | 0.00 | 84 | 1000.2 |
| 20260905190051 | 13 | 344 | 9.7 | 24.1 | 0.00 | 0.00 | 0.00 | 83 | 1000.2 |
| 20260905184555 | 13 | 344 | 12.9 | 24.1 | 0.00 | 0.00 | 0.00 | 82 | 1000.1 |
| 20260905183046 | 13 | 352 | 11.3 | 25.7 | 0.00 | 0.00 | 0.00 | 82 | 1000.0 |
| 20260905181553 | 13 | 315 | 8.0 | 24.1 | 0.00 | 0.00 | 0.00 | 83 | 999.9 |
| 20260905180050 | 13 | 318 | 6.4 | 24.1 | 0.00 | 0.00 | 0.00 | 82 | 999.7 |
| 20260905174546 | 13 | 311 | 8.0 | 19.3 | 0.00 | 0.00 | 0.00 | 81 | 999.5 |
| 20260905173050 | 14 | 294 | 8.0 | 19.3 | 0.00 | 0.00 | 0.00 | 79 | 999.4 |
| 20260905171553 | 15 | 299 | 6.4 | 22.5 | 0.00 | 0.00 | 0.00 | 79 | 999.3 |
| 20260905170050 | 15 | 346 | 9.7 | 20.9 | 0.00 | 0.00 | 0.00 | 77 | 999.1 |
| 20260905164548 | 15 | 326 | 8.0 | 22.5 | 0.00 | 0.00 | 0.00 | 76 | 998.9 |
| 20260905163045 | 15 | 329 | 12.9 | 27.4 | 0.00 | 0.00 | 0.00 | 74 | 998.9 |
| 20260905161553 | 15 | 306 | 9.7 | 24.1 | 0.00 | 0.00 | 0.00 | 73 | 998.7 |
| 20260905160051 | 15 | 319 | 8.0 | 27.4 | 0.00 | 0.00 | 0.00 | 75 | 998.5 |
| 20260905154547 | 16 | 342 | 12.9 | 22.5 | 0.00 | 0.00 | 0.00 | 71 | 998.5 |
| 20260905153046 | 15 | 324 | 11.3 | 22.5 | 0.00 | 0.00 | 0.00 | 74 | 998.4 |
| 20260905151600 | 16 | 352 | 9.7 | 27.4 | 0.00 | 0.00 | 0.00 | 73 | 998.4 |
| 20260905150049 | 16 | 347 | 16.1 | 27.4 | 0.00 | 0.00 | 0.00 | 73 | 998.4 |
| 20260905144548 | 16 | 348 | 8.0 | 25.7 | 0.00 | 0.00 | 0.00 | 72 | 998.2 |
| 20260905143046 | 16 | 278 | 12.9 | 29.0 | 0.00 | 0.00 | 0.00 | 66 | 998.1 |
| 20260905141551 | 16 | 290 | 8.0 | 20.9 | 0.00 | 0.00 | 0.00 | 71 | 997.9 |
| 20260905140046 | 16 | 319 | 4.8 | 25.7 | 0.00 | 0.00 | 0.00 | 69 | 997.8 |
| 20260905134547 | 17 | 345 | 12.9 | 24.1 | 0.00 | 0.00 | 0.00 | 66 | 997.6 |
| 20260905133043 | 17 | 295 | 12.9 | 25.7 | 0.00 | 0.00 | 0.00 | 57 | 997.4 |
| 20260905131552 | 17 | 343 | 8.0 | 24.1 | 0.00 | 0.00 | 0.00 | 57 | 997.4 |
| 20260905130047 | 17 | 339 | 14.5 | 27.4 | 0.00 | 0.00 | 0.00 | 58 | 997.3 |
| 20260905124547 | 17 | 282 | 11.3 | 27.4 | 0.00 | 0.00 | 0.00 | 59 | 997.1 |
| 20260905123103 | 17 | 338 | 14.5 | 24.1 | 0.00 | 0.00 | 0.00 | 59 | 997.0 |
| 20260905121548 | 17 | 285 | 8.0 | 24.1 | 0.00 | 0.00 | 0.00 | 60 | 996.9 |
| 20260905120046 | 17 | 294 | 9.7 | 24.1 | 0.00 | 0.00 | 0.00 | 60 | 996.8 |
| 20260905114546 | 17 | 344 | 6.4 | 19.3 | 0.00 | 0.00 | 0.00 | 62 | 996.7 |
| 20260905113050 | 17 | 347 | 3.2 | 19.3 | 0.00 | 0.00 | 0.00 | 63 | 996.7 |
| 20260905111555 | 17 | 347 | 6.4 | 20.9 | 0.00 | 0.00 | 0.00 | 65 | 996.6 |
| 20260905110046 | 17 | 344 | 6.4 | 20.9 | 0.00 | 0.00 | 0.00 | 66 | 996.5 |
| 20260905104545 | 16 | 276 | 6.4 | 19.3 | 0.00 | 0.00 | 0.00 | 67 | 996.3 |
| 20260905103058 | 16 | 333 | 8.0 | 24.1 | 0.00 | 0.00 | 0.00 | 66 | 996.2 |
| 20260905101547 | 16 | 346 | 8.0 | 27.4 | 0.00 | 0.00 | 0.00 | 66 | 996.1 |
| 20260905100056 | 16 | 351 | 11.3 | 22.5 | 0.00 | 0.00 | 0.00 | 67 | 996.0 |
| 20260905094547 | 16 | 317 | 9.7 | 19.3 | 0.00 | 0.00 | 0.00 | 68 | 995.8 |
| 20260905093050 | 16 | 307 | 6.4 | 20.9 | 0.00 | 0.00 | 0.00 | 71 | 995.7 |
| 20260905091553 | 15 | 275 | 9.7 | 19.3 | 0.00 | 0.00 | 0.00 | 76 | 995.6 |
| 20260905090045 | 16 | 348 | 6.4 | 16.1 | 0.00 | 0.00 | 0.00 | 74 | 995.3 |
| 20260905084607 | 15 | 20 | 3.2 | 14.5 | 0.00 | 0.00 | 0.00 | 76 | 995.3 |
| 20260905083052 | 15 | 336 | 6.4 | 14.5 | 0.00 | 0.00 | 0.00 | 76 | 995.2 |
| 20260905081545 | 14 | 9 | 8.0 | 16.1 | 0.00 | 0.00 | 0.00 | 80 | 995.3 |
| 20260905080111 | 14 | 344 | 4.8 | 11.3 | 0.00 | 0.00 | 0.00 | 82 | 995.1 |
| 20260905074553 | 13 | 316 | 4.8 | 14.5 | 0.00 | 0.00 | 0.00 | 85 | 994.9 |
| 20260905073049 | 13 | 360 | 4.8 | 12.9 | 0.00 | 0.00 | 0.00 | 87 | 994.9 |
| 20260905071547 | 12 | 327 | 4.8 | 16.1 | 0.00 | 0.00 | 0.00 | 89 | 994.7 |
| 20260905070058 | 12 | 341 | 1.6 | 9.7 | 0.00 | 0.00 | 0.00 | 91 | 994.7 |
| 20260905064559 | 12 | 352 | 4.8 | 11.3 | 0.00 | 0.00 | 0.00 | 92 | 994.6 |